Weather in Burao

Somalia     9°31′29″N   45°32′09″E
temp.,
°C
wind,
m/s
gust,
m/s
humid.,
%
clouds,
%
prec.,
mm/h
press.,
hPa
HPBL,
m
20 may, fri
fri2000:00+25sw71050100 0.0 1011410
03:00+23sw71258100 0.0 1010499
06:00+23wsw7125999 0.0 1012459
09:00+27sw994585 0.0 10131305
12:00+31wsw643297 0.0 10102117
15:00+33wsw22238 0.0 10073312
18:00+32s332357 0.0 100771
21:00+30nne2429100 0.0 1010399
21 may, sat
sat2100:00+27ssw81144100 0.0 1010517
03:00+25sw7114911 0.0 1009519
06:00+23sw71157100 0.0 1011565
09:00+27sw1011465 0.0 1012991
12:00+32sw752860 0.0 10102831
15:00+34sw322080 0.0 10073522
18:00+32s3422100 0.0 100774
21:00+30s233099 0.0 1010676
22 may, sun
sun2200:00+26sw61148100 0.0 1011457
03:00+24sw81354100 0.0 1009510
06:00+23wsw91462100 0.0 1011624
09:00+27wsw1011455 0.0 1012978
12:00+32sw862973 0.0 10082073
15:00+34sw251983 0.0 10053594
18:00+33nw2320100 0.0 1005247
21:00+29nw1128100 0.0 100924
23 may, mon
mon2300:00+27ssw473786 0.0 1008139
03:00+25sw6114888 0.0 1008327
06:00+24wsw7145334 0.0 1010584
09:00+28wsw111241100 0.0 10111105
12:00+34wsw752310 0.0 10072468
15:00+35ssw2515100 0.0 10033936
18:00+33nnw7921100 0.0 1005567
21:00+29sw232586 0.0 100736
24 may, tue
tue2400:00+27ssw71246100 0.0 1008398
03:00+25sw71153100 0.0 1008347
06:00+24wsw91557100 0.0 1010596
09:00+28sw121345100 0.0 10111119
12:00+33wsw872726 0.0 10082234
15:00+35sw551890 0.0 10053690
18:00+33wsw2522100 0.0 1006295
21:00+30w223288 0.0 100919